STARLINK-35970, 66618

Orbit data source: Space-Track

STARLINK-35970, 66618 is a payload satellite owned by SpaceX/Seattle (US) in LEO that was launched on Sun, 23 Nov 2025 UTC via an FALCON 9 launch vehicle from the Air Force Western Test Range (AFWTR). Payload-class satellites include a variety of spacecraft equipped with specific instruments for various scientific and technological missions. These include communications satellites like Starlink; space stations such as the ISS; scientific satellites like the Hubble; Earth observation satellites from companies like Planet Labs, Umbra, and HawkEye 360; GPS; miniature CubeSats for education and research; and military/defense satellites.

Loading next visibility...
Identifier
66618, 2025-271B
Orbit
LEO
Country
Flag of USUS
Related business
Manufacturer
SpaceX/Seattle
Mission
Operational Commercial Communications
Bus & Motor
STARLINK V2MO, Unknown motor
Mass
575 kg wet, ~530 kg dry
Launch date (UTC)
2025-11-23 (2 months ago)
Launch vehicle
FALCON 9
Launch site
Air Force Western Test Range (AFWTR)
Object type
Payload
Rocket body
Debris
Shape & HBR
Box + 2 Pan, 17.7 m
Radar Cross Section
36.964 m²

Expand to show TLE details & history
Last TLE update: 5 hours ago

TLE from 5 hours ago
0 STARLINK-35970
1 66618U 25271B   26037.09588915  .00035426  00000-0  12014-2 0  9997
2 66618  53.1582 286.3853 0000766  39.9149 320.1908 15.30228643 12732
Epoch: 2026-02-06T02:18Z
TLE epoch observation values (Epoch: 2026-02-06T02:18:04.822Z)
Latitude
-0.00002°
Longitude
115.62651°
Altitude
475.626 km
Speed
7.629 km/s
True Right ascension
19h 05m 32s
True Declination
0° 00' 00"
Sunlit
Object was in daylight at epoch
Visualization orbit readout
Latitude
Unknown
Longitude
Unknown
Altitude
Unknown
Speed
Unknown
Apparent Right ascension
Unknown
Apparent Declination
Unknown
Sunlit
N/A
Visualization observer readout
Local Sidereal Time
09:07:27
Azimuth
Unknown
Elevation
Unknown
Doppler factor
Unknown
Orbital elements
Apogee altitude
475.911 km
Perigee altitude
474.861 km
Semi-major axis
6,853.523 km
Eccentricity
0.00008
Inclination
53.1582°
RAAN
286.3853°
Arg. of periapsis
39.9149°
True anomaly
320.18518°
Mean anomaly
320.1908°
Eccentric anomaly
320.18799°
Mean motion
3.82536 °/min
Orbital period
94.11 mins
BSTAR
0.0012014
Loading maneuver chart data...
Computing Atmospheric mass density...
Loading historical data...
Loading historical data...
Loading historical data...
Loading historical data...
Loading historical data...
Loading historical data...
Loading historical data...

Documentation

Showing up to 5 results
|